This demonstration page uses our WeatherBlox Daily Observations layout. Learn more.

Left ArrowRight Arrow

38.20091, -84.87328

Hourly Observations for August 30, 2016

Temp ( °F °C ) Dew Point ( °F °C ) Humidity (%) Winds ( mph kmh ) Pressure ( in mb ) Visibility ( mi km ) Precip ( " mm )
12:53 am 00:53 Clear 73 22.8 70 21.1 90 90 Calm 30.12 1020 9 14 0.00 0.00
1:53 am 01:53 Clear 73 22.8 70 21.1 90 90 N 3 6 30.11 1020 9 14 0.00 0.00
2:53 am 02:53 Clear 73 22.8 70 21.1 90 90 Calm 30.11 1020 9 14 0.00 0.00
3:53 am 03:53 Clear 71 21.7 68 20 90 90 Calm 30.11 1020 7 11 0.00 0.00
4:53 am 04:53 Clear 70 21.1 67 19.4 90 90 Calm 30.11 1020 9 14 0.00 0.00
5:53 am 05:53 Clear 71 21.7 68 20 90 90 Calm 30.11 1020 9 14 0.00 0.00
6:53 am 06:53 Clear 71 21.7 67 19.4 87 87 Calm 30.11 1020 9 14 0.00 0.00
7:53 am 07:53 Sunny 72 22.2 68 20 87 87 Calm 30.12 1020 10 16 0.00 0.00
8:53 am 08:53 Sunny 76 24.4 69 20.6 79 79 E 6 9 30.12 1020 10 16 0.00 0.00
9:53 am 09:53 Sunny 79 26.1 69 20.6 72 72 E 6 9 30.12 1020 10 16 0.00 0.00
10:53 am 10:53 Sunny 83 28.3 70 21.1 65 65 E 5 7 30.12 1020 10 16 0.00 0.00
11:53 am 11:53 Sunny 85 29.4 69 20.6 59 59 Calm 30.11 1020 10 16 0.00 0.00
12:53 pm 12:53 Mostly Sunny 87 30.6 69 20.6 55 55 SE 3 6 30.09 1019 10 16 0.00 0.00
1:53 pm 13:53 Mostly Sunny 88 31.1 67 19.4 50 50 NE 6 9 30.08 1019 10 16 0.00 0.00
2:53 pm 14:53 Mostly Sunny 90 32.2 66 18.9 45 45 N 5 7 30.07 1018 10 16 0.00 0.00
3:53 pm 15:53 Sunny 91 32.8 67 19.4 45 45 Calm 30.04 1017 10 16 0.00 0.00
4:53 pm 16:53 Mostly Sunny 91 32.8 67 19.4 45 45 NNW 6 9 30.02 1017 10 16 0.00 0.00
5:53 pm 17:53 Sunny 91 32.8 67 19.4 45 45 NNW 6 9 30.01 1016 10 16 0.00 0.00
6:53 pm 18:53 Sunny 90 32.2 66 18.9 45 45 N 3 6 30.00 1016 10 16 0.00 0.00
7:53 pm 19:53 Sunny 83 28.3 70 21.1 65 65 Calm 29.98 1015 10 16 0.00 0.00
8:53 pm 20:53 Clear 77 25 71 21.7 82 82 Calm 29.99 1016 10 16 0.00 0.00
9:53 pm 21:53 Clear 77 25 70 21.1 79 79 NNW 3 6 30.02 1017 10 16 0.00 0.00
10:53 pm 22:53 Clear 76 24.4 70 21.1 82 82 NNW 3 6 30.03 1017 10 16 0.00 0.00
11:53 pm 23:53 Clear 74 23.3 70 21.1 88 88 Calm 30.03 1017 10 16 0.00 0.00

Powered by AerisWeather